Вернуться в каталог

TIROS 8 DEB

АктивенVLEO
NORAD 19396·DEBRIS·🇺🇸 United States

Запущен Dec 21, 1963 с Vandenberg Space Force Base

Loading…

Ближайшие Пролёты (ближайшие 24 часа)

TLE

СвежийSource: Space-Track

Эпоха: Sep 14, 2026, 11:33 UTC

1 19396U 63054E   26257.48151381  .00004268  00000-0  23391-3 0  9990
2 19396  58.4643 278.4354 0015723 147.8271 212.3752 15.16025086 47996

Отслеживайте TIROS 8 DEB в реальном времени с AllMySat

Download on the App Store